Location: Azul
(36.7830°S, 59.8500°W)
Time: 01:14:12
(UTC-03:00)

ISS - Pass Details

Date: 14 March 2018
Orbit: 403 x 408 km, 51.6° (Epoch: 21 September)

Event Time Altitude Azimuth Distance (km) Brightness Sun altitude
Rises 20:37:43 0° 247° (WSW) 2,377 1.8 -16.3°
Reaches altitude 10° 20:40:27 10° 271° (W) 1,509 0.2 -16.8°
Maximum altitude 20:42:30 15° 308° (NW) 1,229 -1.0 -17.2°
Drops below altitude 10° 20:44:32 10° 346° (NNW) 1,503 -1.0 -17.6°
Enters shadow 20:45:23 - 355° (N) 1,732 -0.8 -17.8°
